Torna al catalogo

FENGYUN 1C DEB

AttivoPO
NORAD 37918·DEBRIS·🇨🇳 China

Lanciato May 10, 1999 da Taiyuan Satellite Launch Center

Loading…

Prossimi Passaggi (prossime 24 ore)

TLE

AggiornatoSource: Space-Track

Epoca: Sep 12, 2026, 20:29 UTC

1 37918U 99025ENT 26255.85373620  .00000819  00000-0  29787-3 0  9991
2 37918  99.0568 223.1759 0054189 200.7876 159.1105 14.35275149 74737

Traccia FENGYUN 1C DEB in tempo reale con AllMySat

Download on the App Store